Weather in Aleksandria

Ukraine / Rovno District     50°43′55″N   26°20′43″E
temp.,
°C
wind,
m/s
gust,
m/s
humid.,
%
clouds,
%
prec.,
mm/h
press.,
hPa
HPBL,
m
12 april, mon
mon1200:00+7sse4126557 0.0 1025220
03:00+6se4106415 0.0 1024168
06:00+4se496744 0.0 1024150
09:00+8sse5958100 0.0 1024304
12:00+14sse563956 0.0 1022901
15:00+16sse45364 0.0 10201247
18:00+16sse34425 0.0 10191112
21:00+11se45525 0.0 102052
13 april, tue
tue1300:00+9sse345614 0.0 102052
03:00+9s335855 0.0 102032
06:00+9ese226282 0.0 101917
09:00+10se0060100 0.0 102067
12:00+13n1154100 0.0 1019446
15:00+15nnw224874 0.0 1018949
18:00+15nnw4454100 0.0 1016667
21:00+10n4873100 0.0 1017250
14 april, wed
wed1400:00+8n4791100 0.0 1016224
03:00+7n3495100 0.0 1015168
06:00+7n3496100 0.9 1014177
09:00+6nnw4696100 2.7 1014296
12:00+6nnw4596100 1.3 1014360
15:00+6nw3494100 2.7 1014419
18:00+5wnw4695100 1.1 1014417
21:00+4wnw4595100 1.9 1016326
15 april, thu
thu1500:00+4w3496100 0.7 1016414
03:00+3w3498100 0.8 1016339
06:00+3w3498100 0.0 1016264
09:00+3w2397100 0.0 1017290
12:00+4wnw2396100 0.0 1017342
15:00+4wnw3396100 0.2 1017453
18:00+4wnw4695100 1.2 1017393
21:00+4wnw4696100 2.6 1018391
16 april, fri
fri1600:00+3wnw5797100 1.8 1017362
03:00+3wnw5997100 2.6 1017360
06:00+2w61097100 2.1 1017365
09:00+2w51097100 2.8 1018369
12:00+3w61097100 0.1 1018371
15:00+3w6997100 0.2 1019381
18:00+3wnw61097100 0.1 1019375
21:00+3wnw61198100 0.5 1019330